ARIANE 5 DEB (SYLDA), 41750

Orbit data source: Space-Track

ARIANE 5 DEB (SYLDA), 41750 is space debris in HEO originally from a launch on Wed, 24 Aug 2016 UTC launched from the French Guiana (FRGUI). Debris objects in space refer to the collection of defunct objects orbiting the Earth. Examples of debris include non-operational satellites, rocket bodies, and fragments generated from explosions, collisions, or faulty payload assembly.

Loading next visibility...
Identifier
41750, 2016-053D
Orbit
HEO
Country
Flag of FRFR
Related business
Manufacturer
ADS/Bremen
Mission
Spacecraft
Bus & Motor
SYLDA 5, Unknown motor
Mass
440 kg wet, 440 kg dry
Launch date (UTC)
Icon of a cake. It is the launch day of the satellite!2016-08-24 (10 years ago)
Launch vehicle
Unknown
Launch site
French Guiana (FRGUI)
Object type
Payload
Rocket body
Debris
Shape & HBR
Cyl, 2.8 m
Radar Cross Section
27.391 m², Large (>1 m²)

Expand to show TLE details & history
Last TLE update: 18 hours ago

TLE from 18 hours ago
0 ARIANE 5 DEB (SYLDA)
1 41750U 16053D   26235.35440049  .00009721  00000-0  31599-2 0  9997
2 41750   6.0264 121.3798 5771166 160.5450 236.2629  4.35535156111215
Epoch: 2026-08-23T08:30Z
TLE epoch observation values (Epoch: 2026-08-23T08:30:20.202Z)
Latitude
0.00005°
Longitude
22.11072°
Altitude
16,804.298 km
Speed
3.037 km/s
True Right ascension
08h 05m 23s
True Declination
0° 00' 00"
Sunlit
Object was in daylight at epoch
Visualization orbit readout
Latitude
Unknown
Longitude
Unknown
Altitude
Unknown
Speed
Unknown
Apparent Right ascension
Unknown
Apparent Declination
Unknown
Sunlit
N/A
Visualization observer readout
Local Sidereal Time
17:50:24
Azimuth
Unknown
Elevation
Unknown
Doppler factor
Unknown
Orbital elements
Apogee altitude
18,609.285 km
Perigee altitude
321.917 km
Semi-major axis
15,843.738 km
Eccentricity
0.57712
Inclination
6.0264°
RAAN
121.3798°
Arg. of periapsis
160.545°
True anomaly
199.41569°
Mean anomaly
236.2629°
Eccentric anomaly
216.56441°
Mean motion
1.08832 °/min
Orbital period
330.78 mins
BSTAR
0.0031599
Loading maneuver chart data...
Computing Atmospheric mass density...
Loading historical data...
Loading historical data...
Loading historical data...
Loading historical data...
Loading historical data...
Loading historical data...
Loading historical data...

Documentation

Showing up to 5 results
|